FW4141 Weather Reports


time (UTC)temp
C
wind
direction
speed
KPH
gust
KPH
rain 1hr
cm
rain 24hr
cm
rain mn
cm
humidity
%
barometer
mb
20260506151031 23 0.0 0.0 0.00 0.00 0.00 41 998.4
20260506150020 22 0.0 0.0 0.00 0.00 0.00 43 998.3
20260506145114 22 0.0 0.0 0.00 0.00 0.00 41 998.2
20260506144120 23 0.0 0.0 0.00 0.00 0.00 40 998.2
20260506143107 25 0.0 0.0 0.00 0.00 0.00 40 998.1
20260506142122 22 0.0 0.0 0.00 0.00 0.00 41 998.2
20260506141102 23 0.0 0.0 0.00 0.00 0.00 41 998.1
20260506140109 23 0.0 0.0 0.00 0.00 0.00 41 998.1
20260506135052 23 0.0 0.0 0.00 0.00 0.00 40 998.1
20260506134048 23 0.0 0.0 0.00 0.00 0.00 41 998.1
20260506133052 23 0.0 0.0 0.00 0.00 0.00 40 998.0
20260506132109 23 0.0 0.0 0.00 0.00 0.00 40 997.9
20260506131042 22 0.0 0.0 0.00 0.00 0.00 43 998.0
20260506130033 21 0.0 0.0 0.00 0.00 0.00 47 998.0
20260506125030 21 0.0 0.0 0.00 0.00 0.00 50 998.0
20260506124026 21 0.0 0.0 0.00 0.00 0.00 50 998.0
20260506123048 22 0.0 0.0 0.00 0.00 0.00 45 998.0
20260506122024 22 0.0 0.0 0.00 0.00 0.00 46 997.7
20260506121119 22 0.0 0.0 0.00 0.00 0.00 50 997.7
20260506120114 21 0.0 0.0 0.00 0.00 0.00 50 997.6
20260506115112 22 0.0 0.0 0.00 0.00 0.00 51 997.6
20260506114104 21 0.0 0.0 0.00 0.00 0.00 52 997.6
20260506113122 20 0.0 0.0 0.00 0.00 0.00 52 997.6
20260506112057 21 0.0 0.0 0.00 0.00 0.00 52 997.5
20260506111055 21 0.0 0.0 0.00 0.00 0.00 52 997.5
20260506110133 21 0.0 0.0 0.00 0.00 0.00 52 997.6
20260506105048 20 0.0 0.0 0.00 0.00 0.00 56 997.6
20260506104047 19 0.0 0.0 0.00 0.00 0.00 55 997.7
20260506103101 20 0.0 0.0 0.00 0.00 0.00 53 997.6
20260506102040 21 0.0 0.0 0.00 0.00 0.00 53 997.6
20260506101032 19 0.0 0.0 0.00 0.00 0.00 57 997.7
20260506100049 18 0.0 0.0 0.00 0.00 0.00 58 997.7
20260506095027 19 0.0 0.0 0.00 0.00 0.00 56 997.6
20260506094022 19 0.0 0.0 0.00 0.00 0.00 60 997.5
20260506093018 18 0.0 0.0 0.00 0.00 0.00 58 997.5
20260506092114 19 0.0 0.0 0.00 0.00 0.00 56 997.4
20260506091111 20 0.0 0.0 0.00 0.00 0.00 55 997.3
20260506090109 20 0.0 0.0 0.00 0.00 0.00 56 997.2
20260506085125 20 0.0 0.0 0.00 0.00 0.00 60 997.1
20260506084101 19 0.0 0.0 0.00 0.00 0.00 60 997.4
20260506083058 18 0.0 0.0 0.00 0.00 0.00 62 997.4
20260506082055 17 0.0 0.0 0.00 0.00 0.00 63 997.4
20260506081052 17 0.0 0.0 0.00 0.00 0.00 68 997.5
20260506073107 16 0.0 0.0 0.00 0.00 0.00 70 997.6
20260506072036 15 0.0 0.0 0.00 0.00 0.00 70 997.6
20260506071055 15 0.0 0.0 0.00 0.00 0.00 67 997.8
20260506062121 13 0.0 0.0 0.00 0.00 0.00 78 997.6
20260506061220 12 0.0 0.0 0.00 0.00 0.00 80 997.7
20260506060117 12 0.0 0.0 0.00 0.00 0.00 81 997.7
20260506051052 11 0.0 0.0 0.00 0.00 0.00 87 997.7
20260506045039 11 0.0 0.0 0.00 0.00 0.00 88 997.7
20260506044035 11 0.0 0.0 0.00 0.00 0.00 88 997.7
20260506043040 11 0.0 0.0 0.00 0.00 0.00 88 997.9
20260506042028 11 0.0 0.0 0.00 0.00 0.00 88 997.7
20260506041025 11 0.0 0.0 0.00 0.00 0.00 88 997.6
20260506040021 11 0.0 0.0 0.00 0.00 0.00 88 997.3
20260506035038 11 0.0 0.0 0.00 0.00 0.00 87 996.8
20260506034115 11 0.0 0.0 0.00 0.00 0.00 87 997.2
20260506033110 11 0.0 0.0 0.00 0.00 0.00 87 997.9
20260506032108 11 0.0 0.0 0.00 0.00 0.00 87 997.8
20260506031106 11 0.0 0.0 0.00 0.00 0.00 87 998.0
20260506025057 11 0.0 0.0 0.00 0.00 0.00 86 998.5
20260506024053 11 0.0 0.0 0.00 0.00 0.00 86 998.6
20260506023052 11 0.0 0.0 0.00 0.00 0.00 86 998.7
20260506022046 11 0.0 0.0 0.00 0.00 0.00 87 998.7
20260506021045 11 0.0 0.0 0.00 0.00 0.00 87 998.6
20260506020039 11 0.0 0.0 0.00 0.00 0.00 88 998.9
20260506015035 11 0.0 0.0 0.00 0.00 0.00 88 998.9
20260506014031 11 0.0 0.0 0.00 0.00 0.00 89 999.2
20260506013028 11 0.0 0.0 0.00 0.00 0.00 88 999.1
20260506011020 11 0.0 0.0 0.00 0.00 0.00 88 998.5
20260506010016 11 0.0 0.0 0.00 0.00 0.00 88 998.9
20260506005133 11 0.0 0.0 0.00 0.00 0.00 87 998.6
20260506004111 11 0.0 0.0 0.00 0.00 0.00 87 998.5
20260506003106 11 0.0 0.0 0.00 0.00 0.00 86 998.5
20260506002103 11 0.0 0.0 0.00 0.00 0.00 85 998.8
20260506001059 11 0.0 0.0 0.00 0.00 0.00 85 999.0
20260506000056 12 0.0 0.0 0.00 0.00 0.00 85 999.0
20260505235053 12 0.0 0.0 0.00 0.00 0.00 85 999.2
20260505234049 12 0.0 0.0 0.00 0.00 0.00 84 999.3
20260505233044 12 0.0 0.0 0.00 0.00 0.00 84 999.4
20260505232101 12 0.0 0.0 0.00 0.00 0.00 84 999.6
20260505231038 12 0.0 0.0 0.00 0.00 0.00 81 999.6
20260505230033 12 0.0 0.0 0.00 0.00 0.00 81 999.7
20260505225033 12 0.0 0.0 0.00 0.00 0.00 81 999.7
20260505224046 12 0.0 0.0 0.00 0.00 0.00 81 999.8
20260505223043 12 0.0 0.0 0.00 0.00 0.00 81 999.7
20260505222020 12 0.0 0.0 0.00 0.00 0.00 81 999.7
20260505221038 12 0.0 0.0 0.00 0.00 0.00 80 999.8
20260505220113 13 0.0 0.0 0.00 0.00 0.00 80 1000.0
20260505215111 13 0.0 0.0 0.00 0.00 0.00 79 1000.1
20260505214106 13 0.0 0.0 0.00 0.00 0.00 78 1000.1
20260505213102 13 0.0 0.0 0.00 0.00 0.00 77 1000.3
20260505212058 13 0.0 0.0 0.00 0.00 0.00 76 1000.5
20260505211058 13 0.0 0.0 0.00 0.00 0.00 76 1000.7
20260505210132 13 0.0 0.0 0.00 0.00 0.00 76 1000.7
20260505205048 13 0.0 0.0 0.00 0.00 0.00 76 1000.7
20260505204046 13 0.0 0.0 0.00 0.00 0.00 76 1000.7
20260505203124 13 0.0 0.0 0.00 0.00 0.00 75 1000.7
20260505202039 13 0.0 0.0 0.00 0.00 0.00 75 1000.7
20260505201034 14 0.0 0.0 0.00 0.00 0.00 74 1000.6
20260505200053 14 0.0 0.0 0.00 0.00 0.00 73 1000.5
20260505195027 15 0.0 0.0 0.00 0.00 0.00 73 1000.6
20260505194024 15 0.0 0.0 0.00 0.00 0.00 72 1000.6
20260505193026 15 0.0 0.0 0.00 0.00 0.00 72 1000.4
20260505192017 15 0.0 0.0 0.00 0.00 0.00 72 1000.4
20260505191115 15 0.0 0.0 0.00 0.00 0.00 71 1000.8
20260505190132 15 0.0 0.0 0.00 0.00 0.00 71 1001.0
20260505185128 16 0.0 0.0 0.00 0.00 0.00 70 1000.9
20260505184105 16 0.0 0.0 0.00 0.00 0.00 70 1000.8
20260505183100 16 0.0 0.0 0.00 0.00 0.00 70 1000.8
20260505182057 16 0.0 0.0 0.00 0.00 0.00 70 1000.8
20260505181055 16 0.0 0.0 0.00 0.00 0.00 69 1000.8
20260505180111 17 0.0 0.0 0.00 0.00 0.00 68 1000.6
20260505175045 17 0.0 0.0 0.00 0.00 0.00 67 1000.6
20260505174040 17 0.0 0.0 0.00 0.00 0.00 64 1000.6
20260505173118 17 0.0 0.0 0.00 0.00 0.00 62 1000.8
20260505172036 18 0.0 0.0 0.00 0.00 0.00 61 1000.6
20260505171030 18 0.0 0.0 0.00 0.00 0.00 61 1000.6
20260505170028 18 0.0 0.0 0.00 0.00 0.00 60 1000.6
20260505165025 18 0.0 0.0 0.00 0.00 0.00 60 1000.6
20260505164021 18 0.0 0.0 0.00 0.00 0.00 60 1000.8
20260505163016 19 0.0 0.0 0.00 0.00 0.00 58 1000.7
20260505162112 19 0.0 0.0 0.00 0.00 0.00 59 1000.7
20260505161109 20 0.0 0.0 0.00 0.00 0.00 60 1000.8
20260505160125 19 0.0 0.0 0.00 0.00 0.00 61 1000.8
20260505153115 18 0.0 0.0 0.00 0.00 0.00 61 1000.9
20260505152051 18 0.0 0.0 0.00 0.00 0.00 61 1001.1